星链-32177 (STARLINK-32177)

导读

STARLINK-32177是美国SpaceX公司星链(Starlink)星座的一颗第二代卫星,于2024年8月12日发射。作为星链全球卫星互联网项目的组成部分,它运行在近地轨道,配备增强型相控阵天线与激光星间链路,可为全球偏远地区提供低延迟高速宽带服务,助力星链实现全球无缝覆盖,同时遵循空间碎片管理规范,退役后会再入大气层完全烧毁。

Basic Information
目录编号:
60441
目录名称:
STARLINK-32177
国际标识:
2024-144S
轨道中心:
EARTH
卫星名称:
星链-32177 (STARLINK-32177)
卫星全名:
星链-32177 (STARLINK-32177)
卫星状态:
在轨 (已飞行675 天)
发射日期:
2024-08-12 UTC
国别 :
美国 (US)
星等 :
--
Orbit Information
数据来源 国际轨道数据 AOE轨道数据
星历时间 2026-06-17T10:11:48+0800
23小时前
查看轨道信息
2026-06-14T03:00:00+0800
4天前
查看轨道信息
半长轴 6840.902km 6840.864km
偏心率 0.0001099 0.0001551
轨道倾角 53.160° 53.157°
近地点辐角 94.266° 128.980°
升交点赤经 113.607° 129.029°
平近点角 265.847° 353.196°
近地点 462.013km 461.665km
远地点 463.517km 463.789km
周期 93.849分钟 93.848分钟
每日圈数 15.343795 15.343922
Detailed Information
卫星平台:
Starlink v2.0 mini
运营商:
太空探索技术公司
运营商所在国:
美国
制造商(研发单位):
太空探索技术公司
制造商所在国:
美国
使用方式:
暂无
Satellite Introduction
星链(Starlink)计划是由太空探索技术公司(SpaceX)提出的一个巨型低轨卫星互联网星座项目,计划在2019年至2024年间在太空搭建由约1.2万颗卫星组成的“星链”网络,其中1584颗将部署在地球上空550千米处的近地轨道,并从2020年开始工作。该卫星仍在工作。
2D Orbit Map
3D Orbit Map
Orbit Altitude Analysis Chart
Orbit Inclination Analysis Chart
Orbit Comprehensive Analysis Chart
View Comprehensive Chart